This demonstration page uses our WeatherBlox Daily Observations layout. Learn more.

41.55636, -103.73856

Hourly Observations for December 11, 2016

Temp ( °F °C ) Dew Point ( °F °C ) Humidity (%) Winds ( mph kmh ) Pressure ( in mb ) Visibility ( mi km ) Precip ( " mm )
12:53 am 00:53 Cloudy 34 1.1 22 -5.6 61 61 W 13 20 29.85 1011 10 16.0934 0 0
1:53 am 01:53 Mostly Clear 32 0 22 -5.6 66 66 WNW 7 11 29.86 1011 10 16.0934 0 0
2:53 am 02:53 Clear 31 -0.6 23 -5 72 72 WNW 7 11 29.87 1011 10 16.0934 0 0
3:53 am 03:53 Mostly Cloudy 32 0 24 -4.4 73 73 WNW 12 19 29.85 1011 10 16.0934 0 0
4:53 am 04:53 Cloudy 32 0 20 -6.7 61 61 WNW 12 19 29.88 1012 10 16.0934 0 0
5:53 am 05:53 Cloudy 31 -0.6 17 -8.3 56 56 WNW 8 13 29.91 1013 10 16.0934 0 0
6:53 am 06:53 Cloudy 30 -1.1 16 -8.9 56 56 WNW 12 19 29.94 1014 10 16.0934 0 0
7:53 am 07:53 Cloudy 30 -1.1 17 -8.3 58 58 NW 8 13 29.99 1016 10 16.0934 0 0
8:53 am 08:53 Mostly Cloudy 34 1.1 17 -8.3 50 50 WNW 9 15 29.99 1016 10 16.0934 0 0
9:53 am 09:53 Cloudy 32 0 19 -7.2 59 59 NW 9 15 30.02 1017 10 16.0934 0 0
10:53 am 10:53 Mostly Sunny 35 1.7 20 -6.7 54 54 W 10 17 29.96 1015 10 16.0934 0 0
11:53 am 11:53 Cloudy 36 2.2 17 -8.3 46 46 NW 10 17 29.96 1015 10 16.0934 0 0
12:53 pm 12:53 Cloudy 34 1.1 20 -6.7 56 56 NW 12 19 29.97 1015 10 16.0934 0 0.0254
1:22 pm 13:22 Cloudy with Light Snow 32 0 21 -6 64 64 WNW 10 17 30.03 1017 4 6.43736 0 0
1:31 pm 13:31 Cloudy with Light Snow 31 -0.6 22 -5.6 69 69 WNW 13 20 30.06 1018 1.75 2.816345 0 0.0254
1:42 pm 13:42 Mostly Cloudy with Scattered Snow Showers 30 -1 25 -4 80 80 WNW 10 17 30.06 1018 0.75 1.207005 0 0
1:53 pm 13:53 Mostly Cloudy with Snow 30 -1.1 25 -3.9 82 82 WNW 8 13 30.01 1016 0.5 0.80467 0.01 0.254
2:04 pm 14:04 Cloudy with Light Snow 30 -1 27 -3 86 86 W 8 13 30.06 1018 1 1.60934 0 0
2:17 pm 14:17 Cloudy with Light Snow 31 -0.6 26 -3.3 82 82 W 6 9 30.06 1018 3 4.82802 0 0.0254
2:32 pm 14:32 Cloudy 30 -1 25 -4 80 80 W 6 9 30.06 1018 10 16.0934 0 0
2:39 pm 14:39 Cloudy 30 -1.1 25 -3.9 82 82 W 6 9 30.06 1018 10 16.0934 0 0.0254
2:48 pm 14:48 Cloudy 30 -1 25 -4 80 80 WSW 6 9 30.06 1018 10 16.0934 0 0
2:53 pm 14:53 Cloudy 31 -0.6 25 -3.9 79 79 W 7 11 30.02 1017 10 16.0934 0 0.0254
3:45 pm 15:45 Partly Cloudy 31 -0.6 25 -3.9 79 79 W 5 7 30.06 1018 10 16.0934 0 0
3:53 pm 15:53 Mostly Cloudy 31 -0.6 24 -4.4 76 76 WNW 3 6 30.01 1016 10 16.0934 0 0
4:53 pm 16:53 Clear 27 -2.8 23 -5 85 85 SSW 5 7 30.01 1016 10 16.0934 0 0
5:53 pm 17:53 Mostly Cloudy 24 -4.4 21 -6.1 88 88 S 5 7 30.02 1017 10 16.0934 0 0
6:53 pm 18:53 Clear 20 -6.7 17 -8.3 89 89 Calm 30.04 1017 10 16.0934 0 0
7:53 pm 19:53 Clear 18 -7.8 14 -10 84 84 E 5 7 30.04 1017 10 16.0934 0 0
8:53 pm 20:53 Clear 17 -8.3 13 -10.6 84 84 NW 8 13 30.03 1017 10 16.0934 0 0
9:53 pm 21:53 Clear 15 -9.4 10 -12.2 80 80 N 5 7 30.04 1017 10 16.0934 0 0
10:53 pm 22:53 Clear 15 -9.4 11 -11.7 84 84 NNW 3 6 30.04 1017 10 16.0934 0 0
11:53 pm 23:53 Clear 13 -10.6 9 -12.8 84 84 NNW 6 9 30.02 1017 10 16.0934 0 0

Powered by AerisWeather